User: anonymous   Login
Location: Homewood
(41.1836°S, 175.9581°E)
Time: 15:19:20
(UTC+00:00)
Language:

Cosmos 1833 Rocket - Orbit

View from above orbital plane
View from above orbital plane
View from above satellite
View from above satellite

Ground track
Ground track

The orbit data is extracted from the following two-line orbital elements,

1 17590U 87027B   24173.92877291  .00000051  00000-0  49020-4 0  9993
2 17590  71.0013 154.9527 0005657 332.6377  27.4447 14.16978602926732
Epoch (UTC): 21 June 2024 22:17:25
Eccentricity: 0.0005657
inclination: 71.0013°
perigee height: 831 km
apogee height: 839 km
right ascension of ascending node: 154.9527°
argument of perigee: 332.6377°
revolutions per day: 14.16978602
mean anomaly at epoch: 27.4447°
orbit number at epoch: 92673

The dashed part of the orbit path shows where the satellite is in the earth's shadow,  

DLR